Location: Taukkyan
(23.1052°N, 94.0030°E)
Time: 11:39:47
(UTC+00:00)

Meteor 2-15 - Pass Details

Date: 06 July 2020
Orbit: 936 x 956 km, 82.5° (Epoch: 14 August)

Event Time Altitude Azimuth Distance (km) Brightness Sun altitude
Rises 12:55:16 0° 359° (N) 3,593 7.9 -5.3°
Reaches altitude 10° 12:57:48 10° 3° (N) 2,646 7.1 -5.8°
Maximum altitude 13:03:46 64° 84° (E) 1,030 4.5 -7.0°
Drops below altitude 10° 13:09:44 10° 165° (SSE) 2,638 6.4 -8.2°
Sets 13:12:14 0° 168° (SSE) 3,582 7.1 -8.7°
